RKSS

Gimpo International Airport

Airport
ICAO code
RKSS
IATA Code
GMP
Summary
ICAO Region
APAC
ICAO Territory
Location

Seoul, Seoul National Capital Area

Serving
Seoul
Elevation
58 ft
Coordinates
37° 33' 30" N , 126° 47' 30" E
KCC
Metar
RKSS 151900Z 26002KT CAVOK 17/17 Q1004 NOSIG

An international airport serving Seoul, South Korea but note that the main airport is Incheon.

Climatology

Warm continental climate/Humid continental climate/Humid subtropical climate (Köppen climate classification Dwa/Cwa)

Runways

Designator Length Width Surface Rops
14R/32L 3200 60 ASP Yes/Yes
14L/32R 3600 45 ASP Yes/Yes

Airport map

Aerial View

SKYbrary Partners:

Safety knowledge contributed by: